Regional Weather Roundup
Issued by NWS

Home | Current Version | Previous Version | Text Only | Print | Product List | Glossary On
Versions: 1 2 3 4 5 6 7 8 9 10 11 12 13 14 15 16 17 18 19 20 21 22 23 24 25 26 27 28 29 30 31 32 33 34 35 36 37 38 39 40 41 42 43 44 45 46 47 48 49 50
000
ASUS45 KABQ 040101
RWRNM
WEATHER ROUNDUP FOR NEW MEXICO
NATIONAL WEATHER SERVICE ALBUQUERQUE NM
600 PM MST TUE MAR 03 2015

NOTE: "FAIR" MEANS FEW OR NO CLOUDS BELOW 12,000 FEET AGL WITH NO
       SIGNIFICANT WEATHER OR OBSTRUCTIONS TO VISION.

      THIS PRODUCT IS RELEASED AS TWO VERSIONS.  ONE VERSION NEAR
      THE TOP OF THE HOUR CONTAINING PRELIMINARY DATA FROM ALBUQUERQUE
      AND OTHER STATIONS.  A FINAL VERSION WITH ADDITIONAL DATA IS
      ISSUED ABOUT 10 MINUTES AFTER THE HOUR.

NMZ501-503-504-510>518-040200-
NORTHWEST PLATEAU/NORTHCENTRAL MOUNTAINS

CITY           SKY/WX    TMP DP  RH WIND       PRES   REMARKS
FARMINGTON     CLOUDY    40  29  64 W3        29.80S
SANTA FE       MOCLDY    44  23  43 SW3       29.77R
TAOS           PTCLDY    36  18  48 NW13      29.79S WCI  27
ANGEL FIRE     FAIR      32  17  54 W14       29.79R WCI  22

$$
NMZ402-403-502-505>509-040200-
WESTCENTRAL MOUNTAINS/SOUTHWEST MOUNTAINS

CITY           SKY/WX    TMP DP  RH WIND       PRES   REMARKS
GALLUP         MOCLDY    36  28  73 SW10      29.84R WCI  28
GRANTS         PTCLDY    40  19  42 W12G20    29.83R WCI  33
SILVER CITY    PTCLDY    52  27  37 W10       29.84S

$$
NMZ407-409-411-412-040200-
SOUTHERN DESERTS

CITY           SKY/WX    TMP DP  RH WIND       PRES   REMARKS
DEMING         FAIR      56  35  45 SW13      29.81R
HOLLOMAN AFB   PTCLDY    55  41  59 SW8       29.81R
ALAMOGORDO     PTCLDY    54  41  62 SE8       29.83F
T OR C         CLEAR     57  18  21 SW16      29.77R

$$
NMZ519>523-040200-
CENTRAL VALLEYS/CENTRAL HIGHLANDS

CITY           SKY/WX    TMP DP  RH WIND       PRES   REMARKS
ALBUQUERQUE    PTCLDY    54  17  23 W14       29.75R
DOUBLE EAGLE   PTCLDY    48  16  27 W17       29.77R
MORIARTY ARPT  FAIR      47  29  50 NW9       29.76S
CLINES CORNERS PTCLDY    43  29  57 W9        29.75S
BELEN          FAIR      54  24  30 NW7       29.74R
SOCORRO          N/A     58  11  15 SW15      29.74R

$$
NMZ524>526-539-540-040200-
SOUTHCENTRAL MOUNTAINS

CITY           SKY/WX    TMP DP  RH WIND       PRES   REMARKS
RUIDOSO        NOT AVBL

$$
NMZ527>531-040200-
NORTHEAST HIGHLANDS/NORTHEAST PLAINS

CITY           SKY/WX    TMP DP  RH WIND       PRES   REMARKS
LAS VEGAS      PTCLDY    41  23  48 W15       29.75S
RATON          CLEAR     42  17  36 SW17      29.73R
CLAYTON        CLOUDY    33  30  88 NE15      29.81R WCI  23

$$
NMZ532>537-040200-
EASTCENTRAL PLAINS

CITY           SKY/WX    TMP DP  RH WIND       PRES   REMARKS
TUCUMCARI      PTCLDY    54  41  61 S12       29.72S
CANNON AFB     CLOUDY    54  42  64 S13       29.78R
CLOVIS AIRPORT CLOUDY    52  43  71 S8        29.79R

$$
NMZ028-029-538-040200-
SOUTHEAST PLAINS

CITY           SKY/WX    TMP DP  RH WIND       PRES   REMARKS
ROSWELL        PTCLDY    53  45  74 SE5       29.78F
ARTESIA        PTCLDY    57  45  62 SW12G18   29.81S
CARLSBAD       MOCLDY    61  44  53 S6        29.80R
HOBBS          PTCLDY    57  48  72 CALM      29.84R


$$


USA.gov is the U.S. government's official web portal to all federal, state and local government web resources and services.